Back to catalog

STARLINK-31904

AliveCommunicationsVLEO
NORAD 59657·PAYLOAD·🇺🇸 United States

Launched May 6, 2024 from Cape Canaveral Space Force Station

Loading…

Next Passes (next 24 hours)

TLE

FreshSource: CelesTrak SupGP

Epoch: Sep 14, 2026, 22:07 UTC

1 59657C 24084D   26257.92201389  .00058119  00000+0  21052-2 0  2578
2 59657  43.0009  53.1856 0001441 272.3141  63.6397 15.27547936    12

Track STARLINK-31904 in real time with AllMySat

Download on the App Store